Bangor, ME

11:03 AM EDT on April 28, 2017 (GMT -0400)
Bangor International

Weather History for KBGR - May, 2013

Change the Weather History Date:

Sunday, May 19, 2013

  Actual Average Record
Temperature  
Mean Temperature 51 °F 55 °F  
Max Temperature 65 °F 66 °F 89 °F (1962)
Min Temperature 36 °F 43 °F 32 °F (1991)
Degree Days  
Heating Degree Days 14 10  
Month to date heating degree days 224 253  
Since 1 July heating degree days 7319 7651  
Cooling Degree Days 0 0  
Month to date cooling degree days 0 0  
Year to date cooling degree days 0 0  
Moisture  
Dew Point 42 °F    
Average Humidity 72    
Maximum Humidity 100    
Minimum Humidity 44    
Precipitation  
Precipitation T in 0.13 in 0.82 in (1968)
Month to date precipitation 0.99 2.16  
Year to date precipitation 7.72 14.57  
Snow  
Snow 0.00 in 0.00 in T in (2008)
Month to date snowfall 0.0 0.1  
Since 1 July snowfall 74.3 66.2  
Snow Depth 0.00 in    
Sea Level Pressure  
Sea Level Pressure 30.33 in    
Wind  
Wind Speed 4 mph (SSE)    
Max Wind Speed 15 mph    
Max Gust Speed 21 mph    
Visibility 10 miles    
Events      
T = Trace of Precipitation, MM = Missing Value Source: NWS Daily Summary

Daily Weather History Graph

Daily Weather History Graph

Search for Another Location

Airport or City:

Trip Planner

Search our weather history database for the weather conditions in past years. The results will help you decide how hot, cold, wet, or windy it might be!

Date:

Astronomy

May. 19, 2013 Rise Set
Actual Time 5:02 AM EDT 8:01 PM EDT
Civil Twilight 4:27 AM EDT 8:36 PM EDT
Nautical Twilight 3:43 AM EDT 9:21 PM EDT
Astronomical Twilight 2:51 AM EDT 10:14 PM EDT
Moon 1:48 PM EDT (5/19) 1:39 AM EDT (5/19)
Length of Visible Light 16h 08m
Length of Day
14h 59m
Waxing Gibbous, 65% of the Moon is Illuminated
May 19
Waxing Gibbous
May 25
Full
May 31
Last Quarter
Jun 8
New
Jun 16
First Quarter

Hourly Weather History & Observations

Time (EDT) Temp. Windchill Dew Point Humidity Pressure Visibility Wind Dir Wind Speed Gust Speed Precip Events Conditions
12:53 AM 39.0 °F - 37.0 °F 93% 30.35 in 10.0 mi Calm Calm - N/A   Clear
1:53 AM 37.0 °F - 37.0 °F 100% 30.35 in 10.0 mi Calm Calm - N/A   Clear
2:53 AM 37.0 °F - 36.0 °F 96% 30.36 in 10.0 mi Calm Calm - N/A   Clear
3:53 AM 37.9 °F 33.5 °F 37.0 °F 97% 30.36 in 10.0 mi SE 5.8 mph - N/A   Scattered Clouds
4:53 AM 37.0 °F - 35.1 °F 93% 30.36 in 10.0 mi Calm Calm - N/A   Partly Cloudy
5:53 AM 39.0 °F - 37.9 °F 96% 30.39 in 10.0 mi Calm Calm - N/A   Scattered Clouds
6:53 AM 43.0 °F 41.3 °F 39.9 °F 89% 30.39 in 10.0 mi SSE 3.5 mph - N/A   Scattered Clouds
7:53 AM 46.4 °F 44.3 °F 41.0 °F 81% 30.38 in 10.0 mi Variable 4.6 mph - N/A   Scattered Clouds
8:53 AM 50.0 °F - 39.9 °F 68% 30.39 in 10.0 mi Calm Calm - N/A   Scattered Clouds
9:53 AM 53.1 °F - 41.0 °F 64% 30.39 in 10.0 mi South 4.6 mph - N/A   Scattered Clouds
10:53 AM 55.9 °F - 41.0 °F 57% 30.38 in 10.0 mi East 3.5 mph - N/A   Scattered Clouds
11:53 AM 59.0 °F - 42.1 °F 53% 30.37 in 10.0 mi Variable 3.5 mph - N/A   Scattered Clouds
12:53 PM 61.0 °F - 41.0 °F 48% 30.36 in 10.0 mi Calm Calm - N/A   Mostly Cloudy
1:53 PM 64.0 °F - 42.1 °F 45% 30.32 in 10.0 mi Calm Calm - N/A   Scattered Clouds
2:53 PM 64.4 °F - 44.6 °F 49% 30.29 in 10.0 mi South 12.7 mph 16.1 mph N/A   Mostly Cloudy
3:53 PM 62.6 °F - 44.6 °F 52% 30.29 in 10.0 mi South 10.4 mph - N/A   Overcast
4:53 PM 60.1 °F - 44.1 °F 55% 30.28 in 10.0 mi SSW 10.4 mph - N/A   Overcast
5:53 PM 57.9 °F - 44.1 °F 60% 30.28 in 10.0 mi SSW 12.7 mph - N/A   Overcast
6:53 PM 54.0 °F - 45.0 °F 72% 30.29 in 10.0 mi South 13.8 mph - N/A   Overcast
7:53 PM 51.1 °F - 43.0 °F 74% 30.30 in 10.0 mi South 11.5 mph 19.6 mph N/A   Overcast
8:53 PM 48.9 °F - 43.0 °F 80% 30.29 in 10.0 mi SSE 12.7 mph 18.4 mph N/A   Overcast
9:25 PM 48.2 °F - 44.6 °F 87% 30.29 in 10.0 mi South 10.4 mph - N/A   Overcast
9:53 PM 48.0 °F - 44.1 °F 86% 30.29 in 10.0 mi SSE 12.7 mph - N/A   Overcast
10:05 PM 48.2 °F - 44.6 °F 87% 30.28 in 10.0 mi SSE 11.5 mph - N/A   Overcast
10:53 PM 48.9 °F - 46.0 °F 90% 30.27 in 10.0 mi SSE 10.4 mph - N/A   Overcast
11:53 PM 48.9 °F - 46.9 °F 93% 30.26 in 10.0 mi SSE 5.8 mph - N/A   Overcast